Погода в Бекешевской

Россия / Ставропольский край     44°06′54″N   42°25′43″E
темп.,
°C
ветер,
м/с
пор.,
м/с
влажн.,
%
обл.,
%
осадки,
мм/ч
давл.,
гПа
погр.,
м
17 мая, вт
вт1700:00+8з598692 0.2 1019417
03:00+8з598196 0.3 1019475
06:00+8з378344 0.0 1018447
09:00+11зсз356687 0.0 1017806
12:00+14сз565788 0.2 10151825
15:00+12ссз4475100 1.3 1015907
18:00+10зсз379097 0.8 1016470
21:00+9з3891100 1.3 1018378
18 мая, ср
ср1800:00+7зюз358663 0.1 101873
03:00+6ююз22835 0.1 101614
06:00+7ю227945 0.0 101545
09:00+13в32656 0.0 1013777
12:00+16всв545753 0.0 10101305
15:00+17всв546485 0.0 1008863
18:00+15в2277100 0.3 1009255
21:00+10юз32905 0.3 101121
19 мая, чт
чт1900:00+8ююз32611 0.0 101120
03:00+7з335416 0.0 101322
06:00+8зсз238598 0.0 1015291
09:00+6сз5894100 0.1 1018679
12:00+4з4992100 0.1 1020661
15:00+5з3890100 0.2 1020780
18:00+5зсз4995100 0.9 1021874
21:00+4з71489100 2.6 1023920
20 мая, пт
пт2000:00+3з8158711 0.0 1024716
03:00+4з7128794 0.0 1024730
06:00+4з5108594 0.0 1025746
09:00+8зсз71065100 0.0 10251412
12:00+11зсз8116356 0.2 10241645
15:00+12сз8115868 0.5 10231800
18:00+9зсз6108535 0.3 1025826
21:00+7з51084100 0.5 1026522
21 мая, сб
сб2100:00+6з36866 0.0 1025135
03:00+4ююз32835 0.0 102522
06:00+6ююз227510 0.0 102449
09:00+12с22591 0.0 1020947
12:00+15с33553 0.0 10181258
15:00+16ссз44555 0.0 10171270
18:00+14ссз2269100 0.0 1016492
21:00+9ююз228663 0.0 101711